Hourly Weather Oboh

Today, 12 July, Sunday

Time Temperature Precipitation Wind Pressure Humidity
00:00 +13°C° 0 mm 1 mps 611 mmHg 86%
01:00 +13°C° 0 mm 1 mps 611 mmHg 85%
02:00 +12°C° 0 mm 1 mps 611 mmHg 85%
03:00 +12°C° 0 mm 1 mps 610 mmHg 84%
04:00 +12°C° 0 mm 1 mps 610 mmHg 83%
05:00 +13°C° 0 mm 1 mps 610 mmHg 82%
06:00 +14°C° 0 mm 1 mps 611 mmHg 82%
07:00 +15°C° 0 mm 1 mps 611 mmHg 75%
08:00 +17°C° 0 mm 2 mps 612 mmHg 68%
09:00 +19°C° 0 mm 2 mps 612 mmHg 60%
10:00 +19°C° 0.1 mm 2 mps 612 mmHg 58%
11:00 +20°C° 0.1 mm 3 mps 613 mmHg 56%
12:00 +21°C° 0.1 mm 3 mps 613 mmHg 54%
13:00 +21°C° 0.2 mm 3 mps 612 mmHg 56%
14:00 +21°C° 0.2 mm 3 mps 612 mmHg 58%
15:00 +20°C° 0.2 mm 2 mps 611 mmHg 60%
16:00 +20°C° 0.5 mm 2 mps 611 mmHg 66%
17:00 +19°C° 0.5 mm 2 mps 610 mmHg 72%
18:00 +19°C° 0.5 mm 1 mps 610 mmHg 77%
19:00 +18°C° 0.1 mm 1 mps 609 mmHg 79%
20:00 +15°C° 0.1 mm 1 mps 608 mmHg 80%
21:00 +14°C° 0.1 mm 2 mps 608 mmHg 82%
22:00 +14°C° 0 mm 2 mps 608 mmHg 82%
23:00 +13°C° 0 mm 2 mps 607 mmHg 82%

Tomorrow, 13 July, Monday

Time Temperature Precipitation Wind Pressure Humidity
00:00 +13°C° 0 mm 2 mps 607 mmHg 81%
01:00 +13°C° 0 mm 2 mps 607 mmHg 81%
02:00 +13°C° 0 mm 2 mps 606 mmHg 81%
03:00 +12°C° 0 mm 2 mps 606 mmHg 81%
04:00 +13°C° 0 mm 2 mps 606 mmHg 81%
05:00 +14°C° 0 mm 2 mps 607 mmHg 80%
06:00 +15°C° 0 mm 2 mps 607 mmHg 79%
07:00 +16°C° 0 mm 1 mps 607 mmHg 73%
08:00 +19°C° 0 mm 1 mps 608 mmHg 67%
09:00 +21°C° 0 mm 1 mps 609 mmHg 61%
10:00 +21°C° 0.6 mm 1 mps 609 mmHg 60%
11:00 +22°C° 0.6 mm 1 mps 609 mmHg 59%
12:00 +21°C° 0.6 mm 2 mps 609 mmHg 58%
13:00 +21°C° 1.3 mm 2 mps 608 mmHg 62%
14:00 +20°C° 1.3 mm 2 mps 608 mmHg 66%
15:00 +20°C° 1.3 mm 2 mps 608 mmHg 70%
16:00 +20°C° 1.1 mm 1 mps 608 mmHg 73%
17:00 +20°C° 1.1 mm 1 mps 607 mmHg 76%
18:00 +19°C° 1.1 mm 1 mps 607 mmHg 79%
19:00 +18°C° 0.7 mm 1 mps 607 mmHg 81%
20:00 +16°C° 0.7 mm 1 mps 606 mmHg 83%
21:00 +14°C° 0.7 mm 1 mps 606 mmHg 85%
22:00 +14°C° 0.4 mm 2 mps 606 mmHg 85%
23:00 +14°C° 0.4 mm 2 mps 606 mmHg 84%

Day after tomorrow, 14 July, Tuesday

Time Temperature Precipitation Wind Pressure Humidity
00:00 +14°C° 0.4 mm 2 mps 606 mmHg 83%
01:00 +13°C° 0 mm 2 mps 606 mmHg 83%
02:00 +13°C° 0 mm 2 mps 606 mmHg 82%
03:00 +13°C° 0 mm 2 mps 606 mmHg 81%
04:00 +14°C° 0 mm 1 mps 607 mmHg 80%
05:00 +15°C° 0 mm 1 mps 607 mmHg 80%
06:00 +16°C° 0 mm 1 mps 608 mmHg 79%
07:00 +18°C° 0.1 mm 1 mps 609 mmHg 77%
08:00 +18°C° 0.1 mm 1 mps 609 mmHg 74%
09:00 +19°C° 0.1 mm 1 mps 610 mmHg 72%
10:00 +19°C° 1.3 mm 1 mps 610 mmHg 76%
11:00 +19°C° 1.3 mm 1 mps 610 mmHg 79%
12:00 +19°C° 1.3 mm 1 mps 610 mmHg 83%
13:00 +18°C° 1.6 mm 1 mps 609 mmHg 86%
14:00 +16°C° 1.6 mm 1 mps 609 mmHg 89%
15:00 +14°C° 1.6 mm 0 mps 609 mmHg 92%
16:00 +15°C° 0.7 mm 0 mps 609 mmHg 91%
17:00 +16°C° 0.7 mm 1 mps 609 mmHg 90%
18:00 +16°C° 0.7 mm 1 mps 609 mmHg 89%
19:00 +15°C° 0.3 mm 1 mps 609 mmHg 90%
20:00 +14°C° 0.3 mm 1 mps 609 mmHg 91%
21:00 +13°C° 0.3 mm 1 mps 609 mmHg 92%
22:00 +13°C° 0.1 mm 1 mps 609 mmHg 91%
23:00 +13°C° 0.1 mm 1 mps 609 mmHg 90%

15 July, Wednesday

Time Temperature Precipitation Wind Pressure Humidity
00:00 +13°C° 0.1 mm 1 mps 609 mmHg 89%
01:00 +12°C° 0 mm 1 mps 609 mmHg 88%
02:00 +12°C° 0 mm 1 mps 609 mmHg 88%
03:00 +12°C° 0 mm 1 mps 610 mmHg 87%
04:00 +13°C° 0 mm 1 mps 610 mmHg 85%
05:00 +14°C° 0 mm 1 mps 611 mmHg 84%
06:00 +13°C° 0 mm 0 mps 611 mmHg 82%
07:00 +16°C° 0 mm 1 mps 612 mmHg 80%
08:00 +18°C° 0 mm 1 mps 613 mmHg 77%
09:00 +19°C° 0 mm 1 mps 613 mmHg 75%
10:00 +18°C° 0.5 mm 2 mps 613 mmHg 74%
11:00 +19°C° 0.5 mm 2 mps 613 mmHg 74%
12:00 +19°C° 0.5 mm 2 mps 613 mmHg 73%
13:00 +19°C° 0.9 mm 2 mps 613 mmHg 76%
14:00 +18°C° 0.9 mm 2 mps 613 mmHg 79%
15:00 +18°C° 0.9 mm 2 mps 612 mmHg 82%
16:00 +17°C° 0.3 mm 2 mps 612 mmHg 85%
17:00 +17°C° 0.3 mm 2 mps 612 mmHg 88%
18:00 +16°C° 0.3 mm 1 mps 612 mmHg 91%
19:00 +15°C° 0.1 mm 1 mps 612 mmHg 93%
20:00 +15°C° 0.1 mm 1 mps 612 mmHg 94%
21:00 +14°C° 0.1 mm 1 mps 612 mmHg 96%
22:00 +14°C° 0 mm 1 mps 612 mmHg 95%
23:00 +14°C° 0 mm 1 mps 611 mmHg 95%

16 July, Thursday

Time Temperature Precipitation Wind Pressure Humidity
00:00 +14°C° 0 mm 1 mps 611 mmHg 94%
01:00 +14°C° 0.1 mm 1 mps 611 mmHg 94%
02:00 +14°C° 0.1 mm 1 mps 611 mmHg 93%
03:00 +13°C° 0.1 mm 1 mps 611 mmHg 93%
04:00 +13°C° 0.6 mm 1 mps 611 mmHg 92%
05:00 +13°C° 0.6 mm 1 mps 611 mmHg 92%
06:00 +14°C° 0.6 mm 1 mps 611 mmHg 92%
07:00 +14°C° 0.8 mm 1 mps 611 mmHg 89%
08:00 +14°C° 0.8 mm 1 mps 611 mmHg 87%
09:00 +15°C° 0.8 mm 2 mps 612 mmHg 84%
10:00 +16°C° 0.3 mm 2 mps 612 mmHg 81%
11:00 +17°C° 0.3 mm 2 mps 612 mmHg 78%
12:00 +18°C° 0.3 mm 2 mps 612 mmHg 76%
13:00 +18°C° 1.2 mm 2 mps 612 mmHg 77%
14:00 +18°C° 1.2 mm 2 mps 612 mmHg 79%
15:00 +17°C° 1.2 mm 2 mps 611 mmHg 81%
16:00 +17°C° 0.8 mm 2 mps 611 mmHg 83%
17:00 +16°C° 0.8 mm 1 mps 611 mmHg 86%
18:00 +16°C° 0.8 mm 1 mps 610 mmHg 88%
19:00 +15°C° 0.2 mm 1 mps 610 mmHg 91%
20:00 +14°C° 0.2 mm 1 mps 610 mmHg 93%
21:00 +13°C° 0.2 mm 1 mps 610 mmHg 95%
22:00 +13°C° 0.3 mm 1 mps 610 mmHg 95%
23:00 +13°C° 0.3 mm 1 mps 610 mmHg 94%

17 July, Friday

Time Temperature Precipitation Wind Pressure Humidity
00:00 +13°C° 0.3 mm 1 mps 609 mmHg 94%
01:00 +13°C° 0.4 mm 1 mps 609 mmHg 93%
02:00 +13°C° 0.4 mm 1 mps 609 mmHg 92%
03:00 +13°C° 0.4 mm 1 mps 609 mmHg 91%
04:00 +13°C° 0.4 mm 1 mps 609 mmHg 91%
05:00 +14°C° 0.4 mm 1 mps 609 mmHg 90%
06:00 +14°C° 0.4 mm 1 mps 610 mmHg 89%
07:00 +15°C° 0.2 mm 1 mps 610 mmHg 85%
08:00 +16°C° 0.2 mm 1 mps 610 mmHg 82%
09:00 +17°C° 0.2 mm 2 mps 611 mmHg 78%
10:00 +17°C° 0.3 mm 2 mps 611 mmHg 76%
11:00 +18°C° 0.3 mm 2 mps 611 mmHg 74%
12:00 +18°C° 0.3 mm 2 mps 611 mmHg 73%
13:00 +18°C° 0.4 mm 2 mps 611 mmHg 74%
14:00 +18°C° 0.4 mm 2 mps 611 mmHg 75%
15:00 +17°C° 0.4 mm 2 mps 610 mmHg 76%
16:00 +18°C° 0.3 mm 1 mps 610 mmHg 78%
17:00 +18°C° 0.3 mm 1 mps 610 mmHg 80%
18:00 +18°C° 0.3 mm 1 mps 610 mmHg 81%
19:00 +15°C° 0.2 mm 1 mps 610 mmHg 85%
20:00 +14°C° 0.2 mm 1 mps 610 mmHg 88%
21:00 +13°C° 0.2 mm 1 mps 609 mmHg 91%
22:00 +13°C° 0 mm 1 mps 609 mmHg 90%
23:00 +13°C° 0 mm 1 mps 609 mmHg 90%
Show more